EHI
0 0 0 0 0 0 0 0 0 0 1 3 2 1 2 3 3 3 3 2 1 0 0 0 0 0 0 2 5 4 2 0 0 0 0 0 0 0 0 0 0 0 0
0 0 0 0 0 0 0 0 0 0 0 1 1 2 3 3 3 2 1 1 0 0 0 0 0 0 1 3 4 3 1 0 0 0 0 0 0 0 0 0 0 0 0
0 0 0 0 0 0 0 0 0 0 0 0 1 2 2 2 2 1 0 0 0 0 0 0 0 0 1 3 3 1 0 0 0 0 0 0 0 0 0 0 0 0 0
0 0 0 0 0 0 0 0 0 0 0 0 0 1 1 1 1 0 0 0 0 0 0 0 0 0 0 1 1 0 0 0 0 0 0 0 0 0 0 0 0 0 0
0 0 0 0 0 0 0 0 0 0 0 0 0 0 0 0 0 0 0 0 0 0 0 0 0 0 0 0 0 0 0 0 0 0 0 0 0 0 0 0 0 0 0
0 0 0 0 0 0 0 0 0 0 0 0 0 0 1 1 2 1 1 0 0 0 0 0 0 0 0 0 0 0 0 0 0 0 0 0 0 0 0 0 0 0 0
0 0 0 0 0 0 0 0 0 0 0 0 0 0 1 3 4 3 1 0 0 0 0 0 0 0 0 0 0 0 0 0 0 0 0 0 0 0 0 0 0 0 0
0 0 0 0 0 0 0 0 0 0 0 0 0 0 1 3 4 3 1 0 0 0 0 0 0 0 0 0 0 0 0 0 0 0 0 0 0 0 0 0 0 0 0
0 0 0 0 0 0 0 0 0 0 0 0 1 1 1 2 2 1 0 0 0 0 0 0 0 0 0 0 0 0 0 0 0 0 0 0 0 0 0 0 0 0 0
0 0 0 0 0 0 0 0 0 0 0 0 1 2 1 1 1 1 0 0 0 0 0 0 0 0 0 0 0 0 0 0 0 0 0 0 0 0 0 0 0 0 0
0 0 0 0 0 0 0 0 0 0 0 0 1 1 1 0 0 0 0 0 0 0 0 0 0 0 0 0 0 0 0 0 0 0 0 0 0 0 0 0 0 0 0
0 0 0 0 0 0 0 0 0 0 0 0 0 0 0 0 0 0 0 0 1 0 0 0 0 0 0 0 0 0 0 0 0 0 0 0 0 0 0 0 0 0 0
0 0 0 0 0 0 0 0 0 0 0 0 0 0 0 0 0 0 0 0 0 0 0 0 0 0 0 0 0 0 0 0 0 0 0 0 0 0 0 0 0 0 0
0 0 0 0 0 0 0 0 0 0 0 0 0 0 0 0 0 0 0 0 0 0 0 0 0 0 0 0 0 0 0 0 0 0 0 0 0 0 0 0 0 0 0
0 0 0 0 0 0 0 0 0 0 0 0 0 0 0 0 0 0 0 0 0 0 0 0 0 0 0 0 0 0 0 0 0 0 0 0 0 0 0 0 0 0 0
0 0 0 0 0 0 0 0 0 0 0 0 0 0 0 0 0 0 0 0 0 0 0 0 0 0 0 0 0 0 0 0 0 0 0 0 0 0 0 0 0 0 0
0 0 0 0 0 0 0 0 0 0 0 0 0 0 0 0 0 0 0 0 0 0 0 0 0 0 0 0 0 0 0 0 0 0 0 0 0 0 0 0 0 0 0
0 0 0 0 0 0 0 0 0 0 0 0 0 0 0 0 0 0 0 0 0 0 0 0 0 0 0 0 0 0 0 0 0 0 0 0 0 0 0 0 0 0 0
0 0 0 0 0 0 0 0 0 0 0 0 0 0 0 0 0 0 0 0 0 0 0 0 0 0 0 0 0 0 0 0 0 0 0 0 0 0 0 0 0 0 0
0 0 0 0 0 0 0 0 0 0 0 0 0 0 0 0 0 0 0 0 0 0 0 0 0 0 0 0 0 0 0 0 0 0 0 0 0 0 0 0 0 0 0
0 0 0 0 0 0 0 0 0 0 0 0 0 0 0 0 0 0 0 0 0 0 0 0 0 0 0 0 0 0 0 0 0 0 0 0 0 0 0 0 0 0 0
0 0 0 0 0 0 0 0 0 0 0 0 0 0 0 0 0 0 0 0 0 0 0 0 0 0 0 0 0 0 0 0 0 0 0 0 0 0 0 0 0 0 0
0 0 0 0 0 0 0 0 0 0 0 0 0 0 0 0 0 0 0 0 0 0 0 0 0 0 0 0 0 0 0 0 0 0 0 0 0 0 0 0 0 0 0
0 0 0 0 0 0 0 0 0 0 0 0 0 0 0 0 0 0 0 0 0 0 0 0 0 0 0 0 0 0 0 0 0 0 0 0 0 0 0 0 0 0 0
0 0 0 0 0 0 0 0 0 0 0 0 0 0 0 0 0 0 0 0 0 0 0 0 0 0 0 0 0 0 0 0 0 0 0 0 0 0 0 0 0 0 0
0 0 0 0 0 0 0 0 0 0 0 0 0 0 0 0 0 0 0 0 0 0 0 0 0 0 0 0 0 0 0 0 0 0 0 0 0 0 0 0 0 0 0
Wind_Speed
2 3 7 7 7 6 6 5 5 5 5 5 5 5 5 5 5 5 5 4 4 4 3 3 4 4 4 5 5 5 5 5 5 5 5 5 5 4 5 6 6 4 8
2 3 6 6 6 6 5 4 4 4 4 4 4 3 4 4 4 4 4 4 4 3 3 2 2 2 3 3 3 3 4 4 3 3 3 3 3 4 4 5 5 4 7
3 3 4 5 5 5 4 3 3 3 3 3 3 3 3 4 4 4 4 4 4 4 3 3 2 2 2 2 2 2 2 2 2 2 3 2 1 3 4 5 6 6 7
4 2 2 3 3 2 3 3 3 3 3 4 4 4 4 5 5 5 5 5 5 5 5 4 3 2 2 1 1 1 1 1 1 2 2 1 1 3 4 5 6 6 7
3 2 0 1 1 1 2 3 3 4 5 5 5 5 6 6 6 6 7 6 6 6 6 5 4 4 3 2 1 1 1 1 1 2 1 1 1 3 4 5 6 6 6
3 2 2 1 1 2 3 3 4 5 6 6 6 6 6 7 7 8 8 8 8 7 7 7 6 5 5 4 3 2 2 2 1 1 0 1 1 4 5 5 6 7 7
2 2 3 3 3 3 4 4 5 6 6 7 7 8 7 7 8 8 8 9 9 9 8 8 7 7 6 5 4 3 3 2 1 1 1 1 2 5 6 6 6 7 7
2 3 3 4 4 4 5 5 6 6 7 7 8 8 8 8 8 8 9 9 9 10 9 8 8 8 7 6 5 5 4 3 0 1 1 2 4 6 6 7 6 7 7
2 2 3 3 4 6 6 6 7 7 7 8 8 8 8 8 8 8 9 9 9 10 10 9 9 8 8 7 6 6 5 3 0 1 2 2 5 6 6 7 7 6 7
2 2 2 3 3 3 4 7 7 8 8 9 9 9 9 8 7 8 8 9 10 10 9 9 9 9 9 8 7 6 5 3 1 1 1 3 7 7 7 7 7 6 6
1 1 2 2 3 3 4 5 6 7 8 8 7 9 8 4 3 4 7 9 9 9 9 8 8 8 8 7 7 6 4 1 1 2 2 6 8 8 7 8 7 7 7
0 1 1 2 2 3 3 3 3 3 4 4 3 4 3 3 3 4 6 8 8 7 6 7 7 7 5 2 4 4 1 1 2 2 3 8 8 8 8 8 8 8 7
1 0 1 1 2 2 2 2 2 2 2 3 3 3 2 2 2 2 2 3 4 4 2 3 3 2 2 2 2 1 2 2 2 2 3 8 8 7 8 9 9 8 8
2 0 1 1 2 2 2 2 2 2 2 2 3 3 2 2 2 2 1 2 2 1 1 1 1 2 2 3 3 3 3 2 2 2 3 8 8 8 9 9 9 8 8
2 1 0 1 1 2 2 2 2 2 2 3 3 3 2 2 2 2 2 1 2 1 1 1 2 2 3 3 3 3 3 3 3 3 2 6 8 8 9 10 10 9 9
3 2 0 1 1 2 2 2 2 2 2 3 3 3 3 2 2 2 2 2 2 1 1 2 2 2 2 2 3 3 3 3 3 3 3 3 6 6 8 9 10 10 9
3 1 1 1 1 2 2 2 2 2 2 2 3 4 4 3 2 2 2 2 2 2 1 1 1 1 2 2 3 3 3 3 3 3 3 2 2 4 7 8 9 10 10
3 1 1 1 2 2 2 2 2 2 2 2 3 3 4 4 3 2 2 2 3 2 1 1 1 1 1 2 2 2 2 2 3 3 2 2 2 2 4 7 8 9 10
3 2 1 1 1 2 2 2 2 2 3 2 3 3 4 4 4 3 2 2 3 2 1 1 0 1 1 1 2 2 2 3 2 2 2 2 2 2 2 4 7 9 10
2 2 1 0 1 2 2 2 2 3 3 3 3 3 4 4 4 3 3 4 3 2 2 1 1 0 0 1 2 2 2 3 2 3 3 2 2 3 3 3 3 6 10
2 2 1 1 1 1 1 1 2 2 2 3 3 4 4 4 4 4 3 4 4 2 2 2 1 1 1 0 0 1 1 2 3 3 3 2 2 3 3 3 3 3 4
3 3 2 2 1 1 0 0 0 1 2 2 3 4 4 4 4 4 4 3 3 3 4 3 2 1 1 1 1 1 1 2 1 2 2 2 3 2 3 4 3 4 4
4 5 4 3 2 1 1 1 1 2 2 3 3 3 4 4 4 4 4 3 3 3 3 3 2 1 1 1 1 1 1 1 1 1 1 1 1 2 2 2 4 5 5
6 4 4 4 3 2 0 1 1 1 1 2 2 3 4 4 4 4 4 4 3 3 3 3 2 1 1 1 1 1 0 1 0 1 2 1 1 2 2 3 3 4 5
5 5 4 4 3 2 1 1 1 0 1 2 2 3 4 4 4 4 4 3 3 3 3 3 3 2 1 1 1 1 1 1 0 0 1 2 2 2 2 3 3 3 4
4 4 4 4 4 3 2 1 1 1 1 1 2 2 3 3 3 5 4 3 3 3 3 3 2 3 2 1 1 1 0 0 0 0 1 1 2 2 2 2 3 3 3
Wind_Direction
209 211 191 165 156 150 146 146 149 148 145 143 141 140 139 135 133 133 136 134 132 126 118 111 109 104 100 95 90 89 88 89 96 98 101 102 102 106 117 116 115 111 118
183 184 183 173 167 162 162 165 167 166 165 167 168 167 164 159 157 158 163 164 162 157 149 141 131 122 114 106 93 86 83 81 88 95 101 103 111 120 129 131 130 132 128
146 164 176 184 180 176 181 189 195 198 202 209 210 208 207 199 191 192 194 194 193 187 183 180 177 163 149 132 98 74 71 69 71 93 92 88 116 147 147 148 146 140 136
133 135 166 190 188 191 205 221 238 244 243 243 241 239 237 233 226 220 217 215 214 211 205 203 209 209 202 194 165 53 42 36 34 87 92 138 210 177 167 165 159 150 145
104 91 91 172 199 262 274 280 280 277 273 268 265 261 257 255 250 243 234 231 228 225 220 218 222 228 231 231 239 284 328 356 21 71 90 131 230 212 189 180 168 161 157
71 48 10 18 351 318 309 307 303 297 294 289 284 278 273 268 262 258 250 243 239 234 229 227 228 233 236 243 250 264 297 325 45 85 105 199 222 226 202 189 183 176 170
67 43 17 11 359 341 333 331 325 316 310 305 300 295 289 284 278 271 265 257 248 242 237 233 232 237 240 243 251 261 279 303 121 139 211 231 233 230 203 193 191 186 177
68 39 23 11 5 355 345 338 330 324 318 313 309 305 301 296 289 282 275 269 259 250 245 239 235 239 243 246 250 258 268 287 138 180 248 237 240 228 204 196 194 190 185
63 43 21 7 360 354 345 338 336 329 325 319 315 312 309 303 297 295 290 285 275 261 250 244 241 241 244 247 250 256 265 273 223 221 256 238 242 232 207 199 198 191 187
51 31 6 356 353 347 339 334 335 329 326 325 323 322 316 312 311 310 304 294 284 273 262 251 249 247 245 246 248 253 263 279 217 225 256 254 249 236 212 200 198 191 189
35 11 357 346 346 343 327 338 344 337 334 333 329 327 329 324 312 301 297 294 287 280 271 256 250 252 250 251 252 253 264 214 216 239 246 255 254 241 219 204 198 196 194
272 323 329 330 342 344 337 348 338 337 332 329 319 319 318 310 299 302 302 302 301 296 288 270 252 255 257 257 265 266 249 224 224 242 249 256 252 239 218 204 199 197 196
192 87 23 354 354 356 340 333 332 328 329 330 328 324 320 320 315 317 307 310 312 314 309 295 273 235 200 205 219 216 224 223 230 245 257 259 253 236 216 204 200 198 197
150 165 3 1 357 351 346 332 329 335 336 335 332 338 340 335 328 317 308 308 308 299 275 255 243 223 210 208 210 211 220 219 233 238 250 258 255 237 221 210 204 200 199
172 201 244 340 355 349 353 340 354 343 338 333 337 345 351 339 324 317 310 303 291 278 262 248 237 219 213 209 211 210 216 225 236 238 246 258 258 245 227 216 210 204 202
190 201 252 315 348 3 3 351 346 345 348 349 350 350 356 348 333 323 320 317 308 286 255 237 226 216 218 205 211 217 218 218 226 235 234 252 254 249 233 221 214 205 204
190 191 245 219 21 19 10 359 0 354 3 1 350 353 360 359 347 338 333 331 315 303 284 261 236 208 215 209 209 213 214 222 220 229 230 225 239 247 234 223 214 207 206
174 167 276 65 56 23 11 360 0 6 15 6 356 358 2 2 359 352 347 333 323 325 326 286 239 210 216 217 213 220 217 223 230 232 228 225 221 235 230 224 214 206 207
176 171 152 65 38 12 7 6 9 16 19 7 4 2 1 4 6 7 1 340 338 349 349 319 266 208 215 229 229 223 223 225 231 244 238 234 224 222 215 223 218 210 206
162 156 147 90 1 359 3 9 8 15 9 9 9 3 4 4 8 13 13 0 0 12 2 350 325 296 230 241 255 241 229 225 221 232 235 230 219 220 212 210 211 214 211
158 163 181 211 319 3 14 11 5 350 341 351 357 4 7 9 10 20 15 9 12 18 4 355 352 13 342 347 43 335 308 245 227 231 231 226 226 221 203 205 204 201 209
184 192 209 232 269 295 281 260 248 291 310 311 327 356 10 10 8 19 21 13 11 17 18 14 18 35 4 20 86 83 349 344 308 254 237 227 231 219 217 218 207 206 203
200 205 210 228 246 266 302 41 31 21 4 359 351 347 345 357 8 16 15 14 13 20 14 7 15 47 23 353 23 118 136 237 310 330 286 261 247 224 228 221 218 213 210
211 212 217 228 241 253 238 89 90 74 346 305 307 315 331 355 5 12 13 15 16 18 16 2 24 20 64 26 353 3 153 184 151 335 337 340 291 250 242 238 233 220 214
206 207 216 227 245 254 237 169 128 160 258 294 314 334 345 347 356 4 11 15 18 17 16 16 19 27 39 65 29 356 19 25 71 149 312 332 332 288 257 244 239 230 218
207 212 216 224 245 249 240 220 200 217 254 319 335 342 339 334 338 354 5 16 18 16 14 13 21 31 29 38 32 30 70 111 231 166 225 283 294 289 281 264 246 237 227